星链-34419 (STARLINK-34419)

导读

STARLINK-34419是美国于2025年6月17日发射的星链卫星,隶属于SpaceX打造的星链卫星互联网星座项目。该卫星承担着为全球偏远地区、海上及航空场景提供高速低延迟宽带互联网接入的任务,助力星链完成全球网络覆盖布局,推进低轨卫星通信网络的规模化建设。

Basic Information
目录编号:
64412
目录名称:
STARLINK-34419
国际标识:
2025-129A
轨道中心:
EARTH
卫星名称:
星链-34419
卫星全名:
星链-34419 (STARLINK-34419)
卫星状态:
在轨 (已飞行444 天)
发射日期:
2025-06-17 UTC
国别 :
美国 (US)
星等 :
--
Orbit Information
数据来源 国际轨道数据
星历时间: 2026-09-04T14:00:02+0800
14小时前
查看轨道信息
半长轴: 6881.117km
偏心率: 0.0001893
轨道倾角: 70.000°
近地点辐角 259.540°
升交点赤经 344.085°
平近点角 255.325°
近地点: 501.677km
远地点: 504.283km
周期: 94.678分钟
每日圈数: 15.209482
Detailed Information
固有亮度:
5
最大亮度:
2.5
卫星平台:
Starlink V1.0
覆盖范围:
全球
运营商:
太空探索技术公司
运营商所在国:
美国
制造商(研发单位):
太空探索技术公司
制造商所在国:
美国
使用方式:
暂无
Satellite Introduction
Starlink 计划是 SpaceX 推出的全球卫星互联网项目,通过发射低轨道卫星,为全球尤其是偏远地区提供高速、低延迟的互联网服务。自 2019 年起,Starlink 已部署数千颗卫星,旨在缩小全球数字鸿沟,推动互联网普及。该项目还为军事、航空等行业提供通信支持,带来广泛经济效益。
2D Orbit Map
3D Orbit Map
Orbit Altitude Analysis Chart
Orbit Inclination Analysis Chart
Orbit Comprehensive Analysis Chart
View Comprehensive Chart
Conjunction Data List
Event ID Objects TCA Miss Dist (km) Collision Risk Probability Collision Risk Index (CRI) Action
CDM_260905-154505-953506-441221
2026-09-05T
15:45:53+0000
0.118 km
中距离
9.709026E-4 高风险 0.95
CDM_260831-171505-399806-441221
2026-08-31T
17:15:25+0000
0.771 km
远距离
5.868368E-5 中风险 0.7
CDM_260831-185005-399806-441221
2026-08-31T
18:50:49+0000
1.530 km
极远距离
5.764398E-6 低风险 0.5
CDM_260905-163205-953506-441221
2026-09-05T
16:32:58+0000
1.467 km
极远距离
4.4709E-6 低风险 0.48
CDM_260905-215906-441206-995121
2026-09-05T
21:59:29+0000
1.525 km
极远距离
3.918236E-6 低风险 0.47
CDM_260903-064406-441206-844721
2026-09-03T
06:44:58+0000
2.694 km
极远距离
1.522996E-6 低风险 0.39
CDM_260831-154005-399806-441221
2026-08-31T
15:40:00+0000
2.690 km
极远距离
1.442151E-6 低风险 0.38
CDM_260901-223005-268706-441221
2026-09-01T
22:30:08+0000
2.891 km
极远距离
1.052591E-6 低风险 0.35